Location: Stoke Bliss
(52.2667°N, 2.5167°W)
Time: 19:01:53
(UTC+00:00)

Cosmos 1271 Rocket - Pass Details

Date: 03 March 2021
Orbit: 498 x 544 km, 81.2° (Epoch: 17 April)

Event Time Altitude Azimuth Distance (km) Brightness Sun altitude
Rises 18:27:19 0° 345° (NNW) 2,605 6.4 -6.0°
Reaches altitude 10° 18:29:27 10° 342° (NNW) 1,716 5.6 -6.3°
Maximum altitude 18:33:11 67° 260° (W) 548 3.1 -6.9°
Drops below altitude 10° 18:36:54 10° 178° (S) 1,709 5.3 -7.4°
Sets 18:39:01 0° 176° (S) 2,593 6.2 -7.8°
